Weather History for Milwaukee, WI

Change the Weather History Date:

Saturday, September 22, 2012

  Actual Average Record
Temperature  
Mean Temperature 50 °F 60 °F  
Max Temperature 58 °F 69 °F 92 °F (1937)
Min Temperature 42 °F 52 °F 32 °F (1974)
Degree Days  
Heating Degree Days 15 6  
Month to date heating degree days 74 67  
Since 1 July heating degree days 74 93  
Cooling Degree Days 0 1  
Month to date cooling degree days 70 62  
Year to date cooling degree days 1041 627  
Growing Degree Days 0 (Base 50)    
Moisture  
Dew Point 42 °F    
Average Humidity 72    
Maximum Humidity 93    
Minimum Humidity 51    
Precipitation  
Precipitation 0.20 in 0.11 in 2.40 in (1988)
Month to date precipitation 2.31 2.34  
Year to date precipitation 22.16 26.52  
Snow  
Snow 0.00 in 0.00 in T in (1949)
Month to date snowfall 0.0 0.0  
Since 1 July snowfall 0.0 0.0  
Since 1 September snowfall 0.0 0.0  
Snow Depth 0.00 in    
Sea Level Pressure  
Sea Level Pressure 29.93 in    
Wind  
Wind Speed 10 mph (WNW)    
Max Wind Speed 22 mph    
Max Gust Speed 31 mph    
Visibility 8 miles    
Events Rain , Thunderstorm    
T = Trace of Precipitation, MM = Missing Value Source: NWS Daily Summary

Daily Weather History Graph

Daily Weather History Graph

Search for Another Location

Airport:

Trip Planner

Search our weather history database for the weather conditions in past years. The results will help you decide how hot, cold, wet, or windy it might be!

Date:

Astronomy

Sep. 22, 2012 Rise Set
Actual Time 6:39 AM CDT 6:48 PM CDT
Civil Twilight 6:11 AM CDT 7:16 PM CDT
Nautical Twilight 5:37 AM CDT 7:49 PM CDT
Astronomical Twilight 5:04 AM CDT 8:23 PM CDT
Moon 2:05 PM CDT 11:43 PM CDT
Length of Visible Light 13h 05m
Length of Day
12h 08m
Waxing Crescent, 49% of the Moon is Illuminated
Sep 22
Waxing Crescent
Sep 22
First Quarter
Sep 29
Full
Oct 8
Last Quarter
Oct 15
New

Hourly Weather History & Observations

Time (CDT) Temp. Windchill Dew Point Humidity Pressure Visibility Wind Dir Wind Speed Gust Speed Precip Events Conditions
12:52 AM 51.1 °F - 48.0 °F 89% 29.79 in 10.0 mi WSW 5.8 mph - N/A   Mostly Cloudy
1:52 AM 50.0 °F - 46.9 °F 89% 29.79 in 10.0 mi WSW 5.8 mph - N/A   Scattered Clouds
2:52 AM 48.9 °F - 46.9 °F 93% 29.79 in 9.0 mi West 5.8 mph - N/A   Partly Cloudy
3:47 AM 48.2 °F - 46.4 °F 93% 29.78 in 2.0 mi WSW 3.5 mph - N/A   Partly Cloudy
3:52 AM 48.0 °F - 46.0 °F 93% 29.79 in 2.0 mi WSW 6.9 mph - N/A   Mostly Cloudy
4:52 AM 48.0 °F - 46.0 °F 93% 29.78 in 3.0 mi West 3.5 mph - N/A   Overcast
5:52 AM 48.0 °F - 46.9 °F 96% 29.78 in 10.0 mi SSW 4.6 mph - N/A   Mostly Cloudy
6:02 AM 48.2 °F - 46.4 °F 93% 29.77 in 10.0 mi SW 3.5 mph - N/A Thunderstorm Thunderstorm
6:35 AM 48.2 °F - 46.4 °F 93% 29.82 in 6.0 mi West 11.5 mph 17.3 mph 0.01 in Rain , Thunderstorm Thunderstorms and Rain
6:43 AM 46.4 °F 40.1 °F 44.6 °F 93% 29.81 in 2.0 mi NW 15.0 mph 31.1 mph 0.16 in Rain , Thunderstorm Heavy Thunderstorms with Small Hail
6:49 AM 46.4 °F 38.5 °F 42.8 °F 87% 29.79 in 3.0 mi North 21.9 mph 31.1 mph 0.19 in Rain , Thunderstorm Thunderstorms with Small Hail
6:52 AM 46.0 °F 40.2 °F 42.1 °F 86% 29.80 in 5.0 mi North 12.7 mph 27.6 mph 0.19 in Rain , Thunderstorm Thunderstorms with Small Hail
6:57 AM 46.4 °F 39.8 °F 41.0 °F 81% 29.79 in 8.0 mi North 16.1 mph 20.7 mph 0.01 in Rain , Thunderstorm Thunderstorms with Small Hail
7:03 AM 46.4 °F 40.1 °F 41.0 °F 81% 29.79 in 10.0 mi NNE 15.0 mph - 0.01 in Rain Light Rain
7:52 AM 46.9 °F - 42.1 °F 83% 29.82 in 10.0 mi NW 5.8 mph - 0.01 in Rain Light Rain
8:52 AM 43.0 °F 35.7 °F 39.0 °F 86% 29.88 in 10.0 mi WNW 15.0 mph 24.2 mph 0.00 in   Overcast
9:23 AM 42.8 °F 34.8 °F 37.4 °F 81% 29.89 in 10.0 mi WNW 17.3 mph 25.3 mph N/A   Overcast
9:52 AM 43.0 °F 34.2 °F 37.0 °F 80% 29.92 in 10.0 mi WNW 20.7 mph 27.6 mph N/A   Mostly Cloudy
10:18 AM 42.8 °F 35.4 °F 37.4 °F 81% 29.92 in 10.0 mi NW 15.0 mph - N/A   Mostly Cloudy
10:52 AM 44.1 °F 37.7 °F 37.0 °F 76% 29.95 in 10.0 mi WNW 12.7 mph 24.2 mph N/A   Mostly Cloudy
11:52 AM 50.0 °F - 39.9 °F 68% 29.96 in 10.0 mi NW 13.8 mph 25.3 mph N/A   Scattered Clouds
12:52 PM 53.1 °F - 39.9 °F 61% 30.01 in 10.0 mi WNW 17.3 mph 23.0 mph N/A   Scattered Clouds
1:52 PM 54.0 °F - 39.9 °F 59% 30.02 in 10.0 mi WNW 11.5 mph 20.7 mph N/A   Scattered Clouds
2:52 PM 57.2 °F - 39.2 °F 51% 30.03 in 10.0 mi WNW 13.8 mph 25.3 mph N/A   Scattered Clouds
3:52 PM 57.0 °F - 39.0 °F 51% 30.05 in 10.0 mi WNW 15.0 mph 25.3 mph N/A   Scattered Clouds
4:52 PM 55.9 °F - 39.9 °F 55% 30.08 in 10.0 mi West 12.7 mph 21.9 mph N/A   Mostly Cloudy
5:52 PM 55.9 °F - 39.9 °F 55% 30.10 in 10.0 mi West 13.8 mph - N/A   Scattered Clouds
6:52 PM 54.0 °F - 39.0 °F 57% 30.10 in 10.0 mi West 6.9 mph - N/A   Scattered Clouds
7:52 PM 53.1 °F - 39.9 °F 61% 30.12 in 10.0 mi WNW 4.6 mph - N/A   Scattered Clouds
8:52 PM 52.0 °F - 39.9 °F 63% 30.14 in 10.0 mi WNW 5.8 mph - N/A   Partly Cloudy
9:52 PM 51.1 °F - 35.1 °F 54% 30.15 in 10.0 mi WNW 5.8 mph - N/A   Partly Cloudy
10:52 PM 48.9 °F - 37.0 °F 64% 30.16 in 10.0 mi WNW 6.9 mph - N/A   Partly Cloudy
11:52 PM 46.9 °F - 37.0 °F 68% 30.17 in 10.0 mi West 4.6 mph - N/A   Partly Cloudy